Hourly Data Report for October 27, 2019

SAINT JOHN A
NEW BRUNSWICK
Current Station Operator: NAVCAN

45°18'58.000" N
65°53'24.000" W
108.80 m
8104901
71609
YSJ

Download Data

Hourly Data (October 2019)
Hourly Data Report for October 27, 2019
TIME
LST
Temp Definition
°C
Dew Point Definition
°C
Rel Hum Definition
%
Precip. Amount Definition
mm

Wind Dir Definition
10's deg

Wind Spd Definition
km/h
Visibility Definition
km
Stn Press Definition
kPa
Hmdx Definition


Wind Chill Definition


Weather Definition


00:00 0.0 -1.5 90   31 10 24.1 101.25   -3 LegendNANA
01:00 -1.1 -2.3 92   36 3 24.1 101.31   -2 LegendNANA
02:00 -1.5 -2.1 96   35 3 24.1 101.32   -3 Clear
03:00 -2.2 -2.7 97   36 3 24.1 101.34   -3 LegendNANA
04:00 -3.0 -3.4 97   36 2 24.1 101.32   -4 LegendNANA
05:00 -3.3 -3.6 97   2 3 24.1 101.35   -5 Clear
06:00 -2.6 -2.9 98   8 4 24.1 101.36   -4 LegendNANA
07:00 -2.8 -3.2 97   6 9 24.1 101.39   -6 LegendNANA
08:00 -0.3 -1.1 94   4 9 24.1 101.37   -3 Mostly Cloudy
09:00 3.5 0.5 81   2 7 24.1 101.33     LegendNANA
10:00 6.6 1.2 68   36 2 80.5 101.31     LegendNANA
11:00 8.0 -0.4 55   11 8 24.1 101.27     Mostly Cloudy
12:00 8.5 1.1 59   15 8 24.1 101.22     LegendNANA
13:00 8.2 2.0 65   20 19 24.1 101.17     LegendNANA
14:00 8.2 1.7 63   17 9 24.1 101.04     Cloudy
15:00 7.9 1.8 65   16 11 24.1 101.03     LegendNANA
16:00 7.4 2.2 69   13 8 24.1 100.95     LegendNANA
17:00 6.8 2.1 72   10 7 24.1 100.85     Cloudy
18:00 6.5 1.8 72   10 12 24.1 100.75     LegendNANA
19:00 6.7 0.2 63   11 11 24.1 100.72     LegendNANA
20:00 7.5 0.8 63   12 14 24.1 100.66     Cloudy
21:00 7.6 0.7 62   14 14 24.1 100.64     LegendNANA
22:00 5.9 2.5 78   14 11 24.1 100.74     LegendNANA
23:00 5.1 2.7 84   15 10 19.3 100.69     Cloudy

Notes on Data Quality.

Legend

  • E = Estimated
  • M = Missing
  • NA = Not Available*
  • [empty] = Indicates an unobserved value
Date modified: